Change the Weather History Date:

Friday, March 2, 2012

  Actual Average Record
Temperature  
Mean Temperature 58 °F -  
Max Temperature 75 °F 68 °F 75 °F (2012)
Min Temperature 42 °F 39 °F 24 °F (2014)
Degree Days  
Heating Degree Days 6    
Growing Degree Days 8 (Base 50)    
Moisture  
Dew Point 35 °F    
Average Humidity 48    
Maximum Humidity 99    
Minimum Humidity 14    
Precipitation  
Precipitation 0.00 in - - ()
Sea Level Pressure  
Sea Level Pressure 29.80 in    
Wind  
Wind Speed 4 mph (NE)    
Max Wind Speed 18 mph    
Max Gust Speed 22 mph    
Visibility 9 miles    
Events Fog    
Averages and records for this station are not official NWS values.
T = Trace of Precipitation, MM = Missing Value Source: NWS Daily Summary

Daily Weather History Graph

Daily Weather History Graph

Search for Another Location

Airport or City:

Trip Planner

Search our weather history database for the weather conditions in past years. The results will help you decide how hot, cold, wet, or windy it might be!

Date:

Astronomy

Mar. 02, 2012 Rise Set
Actual Time 7:09 AM CST 6:44 PM CST
Civil Twilight 6:45 AM CST 7:08 PM CST
Nautical Twilight 6:17 AM CST 7:36 PM CST
Astronomical Twilight 5:49 AM CST 8:04 PM CST
Moon 1:16 PM CST (3/2) 2:43 AM CST (3/2)
Length of Visible Light 12h 23m
Length of Day
11h 35m
Waxing Gibbous, 66% of the Moon is Illuminated
Mar 2
Waxing Gibbous
Mar 8
Full
Mar 14
Last Quarter
Mar 22
New
Mar 30
First Quarter

Hourly Weather History & Observations

Time (CST) Temp. Windchill Dew Point Humidity Pressure Visibility Wind Dir Wind Speed Gust Speed Precip Events Conditions
12:15 AM 56.1 °F - 46.4 °F 70% 29.75 in 10.0 mi WSW 5.8 mph - N/A   Clear
12:35 AM 57.2 °F - 47.3 °F 69% 29.75 in 10.0 mi West 4.6 mph - N/A   Clear
1:15 AM 54.5 °F - 45.0 °F 70% 29.75 in 10.0 mi Calm Calm - N/A   Clear
1:35 AM 53.4 °F - 44.4 °F 72% 29.76 in 10.0 mi Calm Calm - N/A   Clear
2:15 AM 51.6 °F - 43.5 °F 74% 29.76 in 10.0 mi Calm Calm - N/A   Clear
2:35 AM 50.7 °F - 41.9 °F 72% 29.76 in 10.0 mi North 4.6 mph - N/A   Clear
2:55 AM 50.7 °F - 44.6 °F 80% 29.76 in 10.0 mi Calm Calm - N/A   Clear
3:15 AM 53.6 °F - 50.2 °F 88% 29.76 in 10.0 mi West 4.6 mph - N/A   Scattered Clouds
3:35 AM 60.8 °F - 58.6 °F 93% 29.78 in 10.0 mi NW 5.8 mph - N/A   Mostly Cloudy
3:55 AM 61.9 °F - 57.7 °F 86% 29.78 in 10.0 mi NNW 4.6 mph - N/A   Overcast
4:15 AM 60.1 °F - 55.6 °F 85% 29.78 in 10.0 mi NNE 5.8 mph - N/A   Scattered Clouds
4:35 AM 58.3 °F - 55.4 °F 90% 29.78 in 7.0 mi Calm Calm - N/A   Clear
4:55 AM 55.6 °F - 53.8 °F 94% 29.78 in 5.0 mi Calm Calm - N/A   Clear
5:15 AM 52.7 °F - 51.4 °F 95% 29.79 in 4.0 mi Calm Calm - N/A   Clear
5:35 AM 50.2 °F - 48.9 °F 95% 29.79 in 0.2 mi NNE 3.5 mph - N/A Fog Fog
5:55 AM 48.9 °F - 48.2 °F 97% 29.78 in 0.8 mi Calm Calm - N/A   Overcast
6:15 AM 47.1 °F - 46.4 °F 97% 29.79 in 0.2 mi Calm Calm - N/A Fog Fog
6:35 AM 46.4 °F - 45.9 °F 98% 29.80 in 3.0 mi Calm Calm - N/A   Mostly Cloudy
6:55 AM 46.2 °F 44.1 °F 45.7 °F 98% 29.80 in 1.2 mi NNE 4.6 mph - N/A   Mostly Cloudy
7:15 AM 43.7 °F 39.7 °F 43.3 °F 99% 29.82 in 2.5 mi North 6.9 mph - N/A   Scattered Clouds
7:35 AM 42.6 °F - 42.1 °F 98% 29.84 in 7.0 mi Calm Calm - N/A   Clear
7:55 AM 44.6 °F 40.7 °F 39.7 °F 83% 29.85 in 10.0 mi NNE 6.9 mph - N/A   Clear
8:15 AM 51.8 °F - 30.0 °F 43% 29.86 in 10.0 mi North 11.5 mph - N/A   Clear
8:35 AM 55.0 °F - 26.6 °F 33% 29.86 in 10.0 mi North 13.8 mph 19.6 mph N/A   Clear
8:55 AM 57.2 °F - 25.5 °F 30% 29.88 in 10.0 mi North 15.0 mph 21.9 mph N/A   Clear
9:15 AM 59.0 °F - 24.3 °F 26% 29.88 in 10.0 mi NNE 18.4 mph 21.9 mph N/A   Clear
9:35 AM 60.4 °F - 24.6 °F 25% 29.88 in 10.0 mi NNE 16.1 mph 21.9 mph N/A   Clear
10:15 AM 61.2 °F - 25.0 °F 25% 29.89 in 10.0 mi North 13.8 mph - N/A   Clear
10:55 AM 63.7 °F - 25.3 °F 23% 29.89 in 10.0 mi NE 12.7 mph - N/A   Clear
11:15 AM 63.9 °F - 25.5 °F 23% 29.89 in 10.0 mi NE 11.5 mph - N/A   Clear
11:35 AM 65.7 °F - 26.2 °F 23% 29.88 in 10.0 mi NE 9.2 mph - N/A   Clear
12:35 PM 68.5 °F - 24.6 °F 19% 29.86 in 10.0 mi Calm Calm - N/A   Clear
12:55 PM 68.9 °F - 24.3 °F 19% 29.85 in 10.0 mi North 4.6 mph - N/A   Clear
1:35 PM 70.9 °F - 23.4 °F 17% 29.82 in 10.0 mi Calm Calm - N/A   Clear
1:55 PM 71.1 °F - 22.6 °F 16% 29.81 in 10.0 mi Calm Calm - N/A   Clear
2:35 PM 72.7 °F - 23.0 °F 16% 29.79 in 10.0 mi Calm Calm - N/A   Clear
2:55 PM 73.8 °F - 25.2 °F 16% 29.78 in 10.0 mi SE 3.5 mph - N/A   Clear
3:15 PM 74.1 °F - 26.1 °F 17% 29.77 in 10.0 mi Calm Calm - N/A   Clear
3:55 PM 74.7 °F - 24.1 °F 15% 29.76 in 10.0 mi Calm Calm - N/A   Clear
4:15 PM 75.0 °F - 23.7 °F 15% 29.76 in 10.0 mi Calm Calm - N/A   Clear
4:35 PM 74.5 °F - 23.5 °F 15% 29.76 in 10.0 mi Calm Calm - N/A   Clear
4:55 PM 74.5 °F - 23.5 °F 15% 29.76 in 10.0 mi Calm Calm - N/A   Clear
5:15 PM 74.8 °F - 23.5 °F 15% 29.76 in 10.0 mi Calm Calm - N/A   Clear
5:35 PM 74.5 °F - 22.6 °F 14% 29.76 in 10.0 mi Calm Calm - N/A   Clear
5:55 PM 74.3 °F - 23.5 °F 15% 29.77 in 10.0 mi East 4.6 mph - N/A   Clear
6:15 PM 73.0 °F - 24.6 °F 16% 29.77 in 10.0 mi East 4.6 mph - N/A   Clear
6:35 PM 71.6 °F - 25.3 °F 18% 29.78 in 10.0 mi East 5.8 mph - N/A   Clear
6:55 PM 68.9 °F - 27.0 °F 21% 29.79 in 10.0 mi ESE 9.2 mph - N/A   Clear
7:15 PM 66.4 °F - 29.1 °F 25% 29.79 in 10.0 mi East 10.4 mph - N/A   Clear
7:35 PM 65.1 °F - 29.8 °F 27% 29.79 in 10.0 mi ESE 10.4 mph - N/A   Clear
7:55 PM 63.3 °F - 30.4 °F 29% 29.80 in 10.0 mi East 6.9 mph - N/A   Clear
8:15 PM 62.2 °F - 30.7 °F 31% 29.81 in 10.0 mi ESE 10.4 mph - N/A   Clear
8:35 PM 61.2 °F - 31.1 °F 32% 29.81 in 10.0 mi ESE 9.2 mph - N/A   Clear
8:55 PM 60.4 °F - 31.3 °F 33% 29.82 in 10.0 mi ESE 8.1 mph - N/A   Clear
9:15 PM 60.3 °F - 31.3 °F 34% 29.81 in 10.0 mi SE 8.1 mph - N/A   Clear
9:35 PM 58.1 °F - 31.6 °F 37% 29.82 in 10.0 mi Calm Calm - N/A   Clear
9:55 PM 58.5 °F - 31.5 °F 36% 29.84 in 10.0 mi Calm Calm - N/A   Clear
10:15 PM 57.2 °F - 31.5 °F 38% 29.86 in 10.0 mi NW 3.5 mph - N/A   Clear
10:35 PM 55.9 °F - 32.0 °F 40% 29.91 in 10.0 mi NNW 13.8 mph 31.1 mph N/A   Clear
10:55 PM 55.8 °F - 32.0 °F 41% 29.91 in 10.0 mi North 9.2 mph - N/A   Clear
11:15 PM 53.8 °F - 32.4 °F 44% 29.92 in 10.0 mi NNE 9.2 mph - N/A   Clear
11:35 PM 53.1 °F - 32.4 °F 45% 29.96 in 10.0 mi North 19.6 mph - N/A   Clear
11:55 PM 52.9 °F - 32.9 °F 47% 29.97 in 10.0 mi NE 21.9 mph 27.6 mph N/A   Clear